NOAA NWS Hourly Roundups by Site

Regional Weather Roundup for Detroit, MI

To Select Another Site Choose from List

Select Site:  

000
ASUS43 KDTX 262110
RWRMI
MICHIGAN HOURLY REGIONAL WEATHER ROUNDUP
NATIONAL WEATHER SERVICE DETROIT/PONTIAC MI
ISSUED BY NATIONAL WEATHER SERVICE GRAND RAPIDS MI
400 PM EST MON FEB 26 2024

NOTE: "FAIR" INDICATES FEW OR NO CLOUDS BELOW 12,000 FEET WITH NO
SIGNIFICANT WEATHER AND/OR OBSTRUCTION TO VISIBILITY.

MIZ047>049-052>055-059>063-066>070-074>076-081>083-262200-
SOUTHEAST LOWER MICHIGAN

CITY           SKY/WX    TMP DP  RH WIND       PRES   REMARKS
ADRIAN         MOSUNNY   55  38  52 E10       29.80F TC  13
ALMA           MOSUNNY   55  29  37 SE14      29.74F TC  13
ANN ARBOR      MOSUNNY   54  37  52 S14       29.80F TC  12
BAD AXE        SUNNY     47  22  37 SE10      29.80F TC   9
DETROIT CITY   MOSUNNY   53  35  50 E10       29.83F TC  12
DETROIT        PTSUNNY   55  36  48 S8        29.82F TC  13
FLINT          MOSUNNY   53  34  48 SE15      29.78F TC  12
GROSSE ILE     MOSUNNY   50  31  48 S3        29.82F TC  10
HILLSDALE      MOSUNNY   58  32  37 SE13      29.77F TC  14
HOWELL         MOSUNNY   55  34  45 SE14      29.77F TC  13

CITY           SKY/WX    TMP DP  RH WIND       PRES   REMARKS
JACKSON        MOSUNNY   57  38  48 SE12      29.77F TC  14
LANSING        MOSUNNY   58  37  45 SE16      29.75F TC  14
MASON          MOSUNNY   58  37  46 S14       29.75F TC  14
MIDLAND        SUNNY     51  29  42 E9G16     29.75F TC  11
MONROE         MOSUNNY   47  35  62 E8        29.82F TC   8
MT. CLEMENS    PTSUNNY   49  34  55 SE12      29.80F TC  10
PONTIAC        PTSUNNY   52  34  50 S14       29.79F TC  11
PORT HOPE        N/A     39  30  70 SE16      29.80F WCI  30 TC   4
PORT HURON     MOSUNNY   54  34  47 SE14      29.84F TC  12
TRI CITIES     SUNNY     55  32  41 SE15      29.75F TC  13
YPSILANTI      MOSUNNY   55  37  50 SE13      29.81F TC  13
$$
MIZ043>046-050>051-056>058-064>065-071>073-077>080-262200-
SOUTHWEST LOWER MICHIGAN

CITY           SKY/WX    TMP DP  RH WIND       PRES   REMARKS
BATTLE CREEK   MOSUNNY   62  39  42 S12G24    29.72F TC  17
BENTON HARBOR  SUNNY     67  40  37 S15G26    29.66F TC  19
BIG RAPIDS     MOSUNNY   52  27  38 SE16G24   29.69F TC  11
COLDWATER      MOSUNNY   59  38  45 SE10      29.75F TC  15
HOLLAND        MOSUNNY   64  38  38 SE14      29.65F TC  18
GRAND RAPIDS   PTSUNNY   59  38  45 SE12      29.69F TC  15
KALAMAZOO      MOSUNNY   65  40  39 S10       29.71F TC  18
MARSHALL       MOSUNNY   60  37  42 S13G18    29.73F TC  16
MOUNT PLEASANT SUNNY     53  30  42 SE12G21   29.73F TC  12
MUSKEGON       PTSUNNY   61  35  37 SE14G24   29.66F TC  16
SOUTH HAVEN    SUNNY     64  35  34 S14G21    29.66F TC  18
STURGIS        SUNNY     62  37  39 S15       29.72F TC  17
$$
MIZ016>042-262200-
NORTHERN LOWER MICHIGAN

CITY           SKY/WX    TMP DP  RH WIND       PRES   REMARKS
ALPENA         MOSUNNY   39  27  62 SE14G24   29.76F WCI  31 TC   4
BEAVER ISLAND  PTSUNNY   46  16  29 SE10G17   29.65F TC   8
BELLAIRE       MOSUNNY   49  20  31 S9G22     29.67F TC  10
CADILLAC       MOSUNNY   50  23  34 SE15G21   29.67F TC  10
CHARLEVOIX     MOSUNNY   49  19  30 SE10G18   29.66F TC   9
GAYLORD        MOSUNNY   48  19  31 S13G23    29.68F TC   9
HOUGHTON LAKE  MOSUNNY   48  21  34 S13G23    29.70F TC   9
MANISTEE       SUNNY     57  26  30 SE14G22   29.61F TC  14
OSCODA         MOSUNNY   40  30  66 SE14      29.81F WCI  33 TC   5
PELLSTON       MOSUNNY   47  17  30 SE12      29.69F TC   8
TRAVERSE CITY  MOSUNNY   55  21  26 S15G30    29.63F TC  13
LUDINGTON      MOSUNNY   57  27  31 S16G22    29.63F TC  14
$$
MIZ007>008-015-262200-
EASTERN UPPER MICHIGAN

CITY           SKY/WX    TMP DP  RH WIND       PRES   REMARKS
KINROSS        CLOUDY    36  25  64 SE21      29.72F WCI  25 TC   2
MACKINAC ISLAN PTSUNNY   37  31  77 E15G28    29.70F WCI  28 TC   3
NEWBERRY       CLOUDY    38  22  52 SE13G18   29.64F WCI  31 TC   4
S. S. MARIE    PTSUNNY   35  24  64 SE13G26   29.72F WCI  26 TC   2
$$
MIZ004>006-011>014-085-262200-
CENTRAL UPPER MICHIGAN

CITY           SKY/WX    TMP DP  RH WIND       PRES   REMARKS
MANISTIQUE     PTSUNNY   39  28  64 E13       29.62F WCI  32 TC   4
ESCANABA       MOSUNNY   40  27  59 SE12      29.61F WCI  33 TC   4
MENOMINEE      SUNNY     46  27  47 S14       29.58F TC   8
SAWYER-GWINN   SUNNY     43  21  42 S28G37    29.49F TC   6
$$
MIZ001>003-009>011-084-262200-
WESTERN UPPER MICHIGAN

CITY           SKY/WX    TMP DP  RH WIND       PRES   REMARKS
IRON MOUNTAIN  MOSUNNY   48  21  34 S17G28    29.50F TC   9
HOUGHTON       PTSUNNY   43  21  41 SE16G25   29.40F TC   6
COPPER HARBOR    N/A     39  24  55 SW20G43   29.41F WCI  29 TC   4
IRONWOOD       SUNNY     53  26  35 SW15G22   29.37F TC  12
$$

ABBREVIATIONS USED IN REMARKS
   TC - TEMPERATURE IN CELSIUS
  WCI - WIND CHILL INDEX
   HX - HEAT INDEX
  VSB - VISIBILITY



 

View Past Reports for Detroit, MI.

Products Courtesy of NOAA-NWS
NWS Information Parsing Script by Ken True at Saratoga Weather - Script by SE Lincoln Weather.